Date,TemperatureHighF,TemperatureAvgF,TemperatureLowF,DewpointHighF,DewpointAvgF,DewpointLowF,HumidityHigh,HumidityAvg,HumidityLow,PressureMaxIn,PressureMinIn,WindSpeedMaxMPH,WindSpeedAvgMPH,GustSpeedMaxMPH,PrecipitationSumIn
2013-1-1,43.0,39.6,31.1,-9.8,-12.4,-19.0,10,10,10,30.02,29.83,10,4,21,0.00
2013-1-2,34.3,28.8,24.6,-16.5,-20.8,-24.1,10,10,10,30.19,29.99,11,3,20,0.00
2013-1-3,35.6,29.3,23.9,-15.5,-20.5,-24.6,10,10,10,30.21,30.08,7,2,14,0.00
2013-1-4,38.7,33.6,27.1,-13.3,-17.1,-22.1,10,10,10,30.12,29.98,12,4,27,0.02
2013-1-5,42.6,34.3,27.7,-10.1,-16.5,-21.7,10,10,10,30.32,30.04,10,2,19,0.00
2013-1-6,32.2,32.2,32.2,-18.2,-18.2,-18.2,10,10,10,30.22,30.22,0,0,2,0.00
2013-1-7,32.2,32.2,32.2,-18.2,-18.2,-18.2,10,10,10,30.22,30.22,0,0,2,0.00
2013-1-8,32.2,32.2,32.2,-18.2,-18.2,-18.2,10,10,10,30.22,30.22,0,0,2,0.00
2013-1-9,32.2,32.2,32.2,-18.2,-18.2,-18.2,10,10,10,30.22,30.22,0,0,2,0.00
2013-1-10,46.4,39.8,32.2,-7.2,-12.3,-18.2,10,10,10,30.51,30.22,8,2,14,0.00
2013-1-20,57.4,48.0,33.0,-99.9,-99.9,-99.9,0,0,100,30.03,29.70,13,6,30,0.32
2013-1-21,36.3,31.1,26.4,-99.9,-99.9,-99.9,0,0,100,30.09,29.81,5,2,12,0.00
2013-1-22,26.3,19.6,14.7,-99.9,-99.9,-99.9,0,0,100,30.22,29.82,11,-14,23,0.02
2013-1-23,15.4,4.8,12.4,-99.9,-99.9,-99.9,0,0,100,30.23,30.20,6,-633,13,0.00
2013-1-24,24.8,21.2,17.4,-99.9,-99.9,-99.9,0,0,100,30.41,30.22,10,6,24,0.00
2013-1-25,30.7,19.2,13.1,-99.9,-99.9,-99.9,0,0,100,30.42,30.05,6,2,15,0.00
2013-1-26,27.9,21.3,12.0,-27.5,-99.3,-99.9,10,0,10,30.29,29.83,9,3,17,0.01
2013-1-27,35.4,30.4,21.2,-99.9,-99.9,-99.9,0,0,100,30.50,30.45,7,2,14,0.00
2013-1-28,37.7,30.7,21.0,-99.9,-99.9,-99.9,0,0,100,30.49,29.99,3,1,11,0.06
2013-1-29,54.0,43.5,35.9,-99.9,-99.9,-99.9,0,0,100,30.11,29.98,3,1,7,0.00
2013-1-30,63.9,53.9,43.2,-99.9,-99.9,-99.9,0,0,100,30.03,29.36,11,2,34,0.39
2013-1-31,61.2,48.9,30.9,-99.9,-99.9,-99.9,0,0,100,29.80,29.10,9,6,27,1.13
2013-2-1,32.5,29.3,24.2,-99.9,-99.9,-99.9,0,0,100,30.23,29.81,11,5,27,0.04
2013-2-2,34.7,26.1,19.6,-99.9,-99.9,-99.9,0,0,100,30.30,30.03,7,3,17,0.00
2013-2-3,35.0,28.6,23.4,-99.9,-99.9,-99.9,0,0,100,30.06,29.76,5,1,12,0.04
2013-2-4,34.3,27.8,22.9,-99.9,-99.9,-99.9,0,0,100,29.98,29.81,10,4,21,0.02
2013-2-5,36.7,33.1,28.2,-99.9,-99.9,-99.9,0,0,100,29.94,29.85,4,1,10,0.01
2013-2-6,41.2,35.0,29.1,-99.9,-99.9,-99.9,0,0,100,30.33,29.87,8,3,19,0.01
2013-2-7,40.7,31.4,24.2,-99.9,-99.9,-99.9,0,0,100,30.46,30.26,5,2,17,0.00
2013-2-8,42.3,38.4,29.8,-99.9,-99.9,-99.9,0,0,100,30.25,29.56,14,6,32,2.17
2013-2-9,34.0,29.0,22.8,-99.9,-99.9,-99.9,0,0,100,30.31,29.70,13,4,31,0.19
2013-2-10,39.5,26.6,15.3,-99.9,-99.9,-99.9,0,0,100,30.46,30.31,6,1,14,0.00
2013-2-23,61.3,49.2,33.6,4.2,-5.2,-17.3,10,10,10,30.02,29.33,16,8,32,4.75
2013-2-24,33.4,29.8,25.3,-17.5,-20.3,-23.8,10,10,10,30.45,30.02,12,5,23,0.05
2013-2-25,34.7,26.6,19.6,-16.5,-22.8,-28.3,10,10,10,30.56,30.32,8,3,15,0.00
2013-2-26,35.1,28.3,23.4,-16.2,-21.5,-25.4,10,10,10,30.33,30.01,6,1,11,0.04
2013-2-27,34.3,27.6,22.8,-16.7,-22.0,-25.8,10,10,10,30.24,30.05,11,4,20,0.02
2013-2-28,35.1,31.9,27.5,-16.2,-18.7,-22.1,10,10,10,30.21,30.10,5,1,8,0.02
2013-3-1,45.5,37.4,30.9,-7.9,-14.3,-19.4,10,10,10,30.34,29.91,10,3,17,0.01
2013-3-2,43.5,37.1,31.1,-9.4,-14.4,-19.0,10,10,10,30.02,29.92,9,4,17,0.00
2013-3-3,39.0,33.4,29.7,-12.9,-17.2,-20.1,10,10,10,30.00,29.91,12,5,21,0.00
2013-3-4,43.2,34.8,27.5,-9.7,-16.2,-21.8,10,10,10,30.15,30.00,15,6,25,0.17
2013-3-5,49.5,37.9,29.7,-4.9,-13.8,-20.1,10,10,10,30.25,30.14,8,2,18,0.00
2013-3-6,43.9,39.4,35.1,-9.1,-12.6,-16.0,10,10,10,30.19,29.95,21,10,42,9.63
2013-3-7,41.0,36.4,33.8,-11.3,-14.9,-16.9,10,10,10,30.30,30.08,14,6,29,0.14
2013-3-8,41.4,35.4,31.6,-11.1,-15.7,-18.6,10,10,10,30.39,30.22,11,4,19,0.12
2013-3-9,57.2,43.4,33.4,1.2,-9.5,-17.2,10,10,10,30.55,30.38,10,3,17,0.00
2013-3-10,45.9,37.3,28.0,-7.7,-14.2,-21.4,10,10,10,30.62,30.54,6,1,13,0.00
2013-3-11,57.0,44.9,32.7,1.0,-8.3,-17.8,10,10,10,30.56,30.32,4,1,11,0.00
2013-3-12,56.5,51.6,47.3,0.6,-3.1,-6.5,10,10,10,30.33,29.91,9,2,17,0.69
2013-3-13,52.5,44.9,38.5,-2.4,-8.3,-13.3,10,10,10,30.14,30.04,14,3,21,0.00
2013-3-14,43.2,36.7,30.9,-9.8,-14.7,-19.2,10,10,10,30.20,30.10,14,6,27,0.24
2013-3-15,51.4,40.1,29.7,-3.3,-12.1,-20.1,10,10,10,30.24,29.95,14,4,23,0.01
2013-3-16,43.0,37.1,33.1,-9.8,-14.4,-17.5,10,10,10,30.08,29.89,5,2,9,0.00
2013-3-17,40.3,35.0,29.7,-11.9,-16.0,-20.1,10,10,10,30.42,30.03,11,3,19,0.12
2013-3-18,40.5,34.4,30.9,-11.8,-16.5,-19.2,10,10,10,30.50,30.41,10,3,99,0.00
2013-3-19,34.9,30.1,24.3,-16.3,-20.0,-24.6,10,10,10,30.11,30.00,8,1,14,0.01
2013-3-20,43.3,35.4,30.9,-9.5,-15.9,-19.4,10,10,10,30.23,29.92,8,1,15,0.02
2013-3-21,42.6,34.0,30.0,-10.1,-16.8,-20.0,10,10,10,29.93,29.76,9,3,17,0.01
2013-3-22,43.3,36.8,28.9,-9.5,-14.6,-20.7,10,10,10,29.95,29.88,14,4,22,0.01
2013-3-23,48.4,43.0,36.9,-5.6,-9.8,-14.6,10,10,10,30.06,29.91,13,4,24,0.01
2013-3-24,49.8,38.0,28.2,-4.5,-13.7,-21.3,10,10,10,30.08,29.81,11,2,17,0.00
2013-3-25,39.9,36.2,32.0,-12.6,-15.1,-18.3,10,10,10,29.81,29.54,14,4,27,0.92
2013-3-26,53.6,42.5,32.9,-1.8,-10.2,-17.6,10,10,10,29.99,29.70,9,2,17,0.05
2013-3-27,54.0,43.7,33.8,-1.3,-9.2,-16.9,10,10,10,30.11,29.99,11,4,21,0.00
2013-3-28,49.6,43.4,34.7,-4.7,-9.5,-16.2,10,10,10,30.24,30.09,9,4,15,0.00
2013-3-29,58.6,45.9,35.1,2.3,-7.6,-16.0,10,10,10,30.28,30.18,11,3,22,0.00
2013-3-30,59.0,46.2,35.2,2.5,-7.3,-15.8,10,10,10,30.30,30.20,8,2,15,0.00
2013-3-31,56.5,47.1,35.2,0.6,-6.6,-15.8,10,10,10,30.27,29.80,9,2,21,0.61
2013-4-1,67.5,53.5,40.6,8.9,-1.7,-11.6,10,10,10,30.03,29.74,14,4,25,0.08
2013-4-2,47.3,40.6,33.3,-6.5,-11.6,-17.3,10,10,10,30.22,30.03,15,4,25,0.00
2013-4-3,48.6,41.4,35.2,-5.6,-11.0,-15.8,10,10,10,30.42,30.21,14,5,27,0.09
2013-4-4,52.5,42.5,31.3,-2.4,-10.2,-18.9,10,10,10,30.53,30.22,7,2,14,0.00
2013-4-5,64.4,50.1,38.7,6.7,-4.4,-13.2,10,10,10,30.23,29.83,11,3,21,0.15
2013-4-6,47.3,43.7,35.8,-6.5,-9.3,-15.4,10,10,10,30.42,30.11,11,4,22,0.00
2013-4-7,103.6,52.5,45.5,36.5,-2.5,-8.1,10,10,10,30.41,30.14,6,2,14,0.00
2013-4-8,71.1,59.4,50.0,11.8,2.9,-4.4,10,10,10,30.20,30.09,8,1,13,0.00
2013-4-9,85.1,70.9,53.6,22.5,11.6,-1.6,10,10,10,30.11,30.03,12,3,21,0.00
2013-4-10,72.7,63.7,54.5,12.9,6.1,-0.9,10,10,10,30.06,29.90,13,3,29,0.38
2013-4-11,61.3,55.0,46.2,4.3,-0.6,-7.3,10,10,10,30.13,29.88,10,3,22,0.05
2013-4-12,46.2,44.4,43.2,-7.3,-8.7,-15.5,10,10,10,30.11,29.80,13,6,24,1.35
2013-4-13,59.4,49.0,42.3,2.8,-5.2,-10.4,10,10,10,30.10,29.83,8,2,14,0.06
2013-4-14,61.9,52.6,42.3,4.8,-2.4,-10.4,10,10,10,30.33,30.09,14,2,27,0.02
2013-4-15,55.4,49.7,45.3,-0.2,-4.6,-8.0,10,10,10,30.50,30.32,8,2,15,0.00
2013-4-16,68.2,57.7,47.3,9.6,1.5,-6.5,10,10,10,30.49,30.26,6,2,18,0.00
2013-4-17,73.0,61.0,50.9,9.0,4.1,-3.7,10,10,10,30.41,30.23,8,2,15,0.01
2013-4-18,61.2,53.7,45.7,4.2,-1.6,-7.7,10,10,10,30.47,30.22,6,1,14,0.00
2013-4-19,75.6,66.3,55.6,15.2,8.1,-0.2,10,10,10,30.22,29.79,13,2,30,0.48
2013-4-20,66.4,55.0,49.1,8.2,-0.5,-5.1,10,10,10,30.42,29.79,12,5,24,0.27
2013-4-21,50.5,44.9,37.4,-4.0,-8.3,-14.1,10,10,10,30.74,30.41,10,3,18,0.00
2013-4-22,48.2,44.7,37.0,-5.8,-8.5,-14.4,10,10,10,30.75,30.58,14,6,24,0.00
2013-4-23,50.9,45.7,42.3,-3.7,-7.7,-10.4,10,10,10,30.59,30.22,12,4,23,0.00
2013-4-24,66.2,53.8,39.0,8.1,-1.5,-12.9,10,10,10,30.23,29.97,5,2,14,0.00
2013-4-25,63.3,54.8,46.6,5.9,-0.7,-7.0,10,10,10,30.40,30.01,11,3,21,0.01
2013-4-26,65.8,53.8,40.3,7.8,-1.5,-12.0,10,10,10,30.52,30.40,7,1,11,0.00
2013-4-27,66.2,54.8,40.5,8.1,-0.7,-11.8,10,10,10,30.55,30.43,6,1,11,0.00
2013-4-28,69.6,56.8,41.5,10.5,0.8,-10.9,10,10,10,30.45,30.34,4,1,13,0.00
2013-4-29,56.7,54.3,51.3,0.7,-1.1,-3.6,10,10,10,30.37,30.28,5,1,11,0.24
2013-4-30,61.0,55.0,47.8,4.1,-0.6,-6.1,10,10,10,30.45,30.30,9,3,17,0.00
2013-5-1,59.4,51.7,42.6,2.8,-3.1,-10.1,10,10,10,30.60,30.43,10,2,17,0.00
2013-5-2,66.2,54.5,41.7,8.1,-0.9,-10.8,10,10,10,30.59,30.45,6,1,11,0.00
2013-5-3,56.8,52.1,47.8,0.9,-2.8,-6.1,10,10,10,30.58,30.48,10,3,21,0.00
2013-5-4,59.7,51.8,44.1,3.1,-3.0,-9.0,10,10,10,30.49,30.38,8,2,14,0.00
2013-5-5,55.8,49.6,46.2,-0.1,-4.7,-7.3,10,10,10,30.42,30.35,8,3,17,0.00
2013-5-6,59.4,52.1,48.2,2.8,-2.8,-5.8,10,10,10,30.38,30.28,9,3,14,0.00
2013-5-7,62.4,55.3,50.0,5.0,-0.3,-4.4,10,10,10,30.29,30.19,8,2,15,0.07
2013-5-8,73.2,61.9,56.7,13.4,4.7,0.7,10,10,10,30.20,30.06,7,2,14,0.53
2013-5-9,74.7,63.7,55.4,14.4,6.2,-0.2,10,10,10,30.12,30.01,9,1,14,0.18
2013-5-10,80.6,68.5,56.7,19.1,9.8,0.7,10,10,10,30.12,30.00,5,1,12,0.00
2013-5-11,78.1,67.3,62.8,17.1,8.9,5.4,10,10,10,30.03,29.81,7,1,14,0.38
2013-5-12,70.9,63.4,51.6,11.6,5.9,-3.1,10,10,10,30.09,29.78,14,3,24,0.17
2013-5-13,60.4,52.4,41.5,3.6,-2.5,-10.9,10,10,10,30.22,30.08,11,3,21,0.00
2013-5-14,64.9,52.4,39.6,7.1,-2.6,-12.5,10,10,10,30.26,30.15,9,2,17,0.00
2013-5-15,77.2,62.6,49.3,16.5,5.3,-4.9,10,10,10,30.21,29.80,8,1,14,0.00
2013-5-16,79.9,68.8,59.0,18.4,10.0,2.5,10,10,10,29.97,29.81,5,1,11,0.04
2013-5-17,77.0,66.4,53.2,16.3,8.2,-1.9,10,10,10,30.32,29.94,8,2,14,0.00
2013-5-18,68.4,59.7,54.0,9.7,3.1,-1.3,10,10,10,30.43,30.31,4,1,9,0.07
2013-5-19,64.0,58.0,55.4,6.4,1.8,-0.2,10,10,10,30.42,30.27,6,1,14,0.53
2013-5-20,80.6,68.8,60.1,18.9,10.1,3.4,10,10,10,30.29,30.09,4,0,8,0.01
2013-5-21,90.0,76.4,63.1,26.2,15.9,5.7,10,10,10,30.10,29.95,8,2,13,0.00
2013-5-22,87.4,74.8,67.8,24.3,14.7,9.3,10,10,10,30.04,29.94,7,1,11,0.00
2013-5-23,84.2,74.2,67.3,21.7,14.2,8.9,10,10,10,30.02,29.88,10,2,21,0.11
2013-5-24,70.7,58.4,45.1,11.4,2.1,-8.3,10,10,10,30.09,29.81,12,4,22,0.25
2013-5-25,60.6,51.9,44.2,3.8,-2.9,-8.8,10,10,10,30.14,30.03,17,6,30,0.72
2013-5-26,70.5,59.1,45.9,11.4,2.6,-7.6,10,10,10,30.33,30.11,14,4,23,0.00
2013-5-27,77.5,62.2,43.3,16.7,5.0,-9.5,10,10,10,30.38,30.25,8,2,14,0.00
2013-5-28,73.2,60.9,50.5,13.4,4.0,-4.0,10,10,10,30.34,30.23,5,0,12,0.43
2013-5-29,92.7,75.8,58.8,28.2,15.3,2.4,10,10,10,30.24,30.12,8,2,15,0.01
2013-5-30,95.4,82.4,70.9,30.3,20.4,11.6,10,10,10,30.26,30.17,7,2,12,0.00
2013-5-31,94.6,82.5,70.5,29.7,20.5,11.4,10,10,10,30.25,30.11,5,1,12,0.00
2013-6-1,94.6,81.6,68.2,29.7,19.8,9.6,10,10,10,30.15,30.02,8,2,18,0.00
2013-6-2,91.8,79.0,70.5,27.5,17.8,11.4,10,10,10,30.05,29.91,10,2,22,0.25
2013-6-3,81.3,72.6,57.0,19.6,12.9,1.0,10,10,10,29.98,29.90,8,1,13,0.59
2013-6-4,77.7,67.5,57.6,16.9,9.0,1.4,10,10,10,30.22,29.98,11,2,15,0.00
2013-6-5,70.5,63.8,52.0,11.2,6.2,-2.9,10,10,10,30.32,30.22,5,2,12,0.00
2013-6-6,72.9,64.7,57.2,13.2,6.9,1.2,10,10,10,30.25,30.10,7,1,13,0.04
2013-6-7,72.7,65.6,61.9,11.6,7.6,4.5,10,10,10,30.11,29.65,7,2,13,2.72
2013-6-8,81.9,71.3,58.6,20.0,12.0,2.3,10,10,10,30.17,29.62,9,2,22,0.44
2013-6-9,85.5,73.9,60.6,22.6,14.0,3.6,10,10,10,30.30,30.17,4,1,9,0.00
2013-6-10,71.1,68.4,64.9,11.6,9.8,7.1,10,10,10,30.27,29.93,4,1,11,1.55
2013-6-11,85.1,76.4,68.9,22.5,15.8,10.1,10,10,10,29.93,29.75,10,3,19,0.05
2013-6-12,83.7,74.0,64.6,21.4,14.0,6.8,10,10,10,29.97,29.84,12,3,18,0.00
2013-6-13,75.4,67.7,61.2,14.9,9.2,4.2,10,10,10,29.96,29.49,8,1,14,0.86
2013-6-14,76.5,62.6,55.0,15.8,5.3,-0.5,10,10,10,30.01,29.57,10,3,20,0.08
2013-6-15,84.7,71.3,57.4,22.2,12.0,1.3,10,10,10,30.13,30.01,8,2,14,0.00
2013-6-16,89.4,74.1,60.1,25.6,14.1,3.4,10,10,10,30.13,29.91,11,2,21,0.00
2013-6-17,90.9,77.3,65.1,26.7,16.5,7.2,10,10,10,30.04,29.93,7,2,14,0.00
2013-6-18,81.1,69.6,64.6,19.5,10.7,6.8,10,10,10,30.01,29.90,13,1,20,0.87
2013-6-19,76.8,69.0,59.9,16.2,10.2,3.1,10,10,10,30.28,29.96,8,2,13,0.00
2013-6-20,80.2,70.0,55.4,18.8,10.9,-0.2,10,10,10,30.40,30.28,5,1,11,0.00
2013-6-21,81.0,71.2,56.1,19.2,11.9,0.3,10,10,10,30.44,30.37,5,1,11,0.00
2013-6-22,84.2,68.5,57.4,21.8,9.8,1.3,10,10,10,30.39,30.36,4,0,8,0.00
2013-6-23,89.4,80.6,62.6,25.8,19.1,5.2,10,10,10,30.32,30.18,5,1,11,0.24
2013-6-24,95.9,81.4,71.6,30.5,19.6,12.2,10,10,10,30.20,30.08,12,2,21,0.01
2013-6-25,95.2,82.1,68.9,30.1,20.2,10.1,10,10,10,30.11,29.94,9,2,17,0.00
2013-6-26,94.5,82.4,72.0,29.6,20.4,12.5,10,10,10,29.98,29.88,8,2,14,0.07
2013-6-27,88.9,79.3,72.0,25.4,18.1,12.5,10,10,10,29.93,29.69,8,2,19,0.02
2013-6-28,92.3,80.0,71.8,27.8,18.6,12.2,10,10,10,29.70,29.58,8,2,15,0.05
2013-6-29,86.2,76.7,68.7,23.2,16.1,10.0,10,10,10,29.82,29.60,6,1,12,0.05
2013-6-30,87.6,77.2,70.2,24.4,16.5,11.1,10,10,10,30.01,29.81,4,1,11,0.05
2013-7-1,89.1,77.2,74.1,25.5,16.5,14.1,10,10,10,30.16,30.00,6,1,13,0.11
2013-7-2,87.1,78.8,74.1,23.9,17.7,14.1,10,10,10,30.31,30.15,5,1,11,0.00
2013-7-3,88.7,79.5,70.9,25.2,18.2,11.6,10,10,10,30.37,30.27,6,1,16,0.85
2013-7-4,94.8,82.7,73.4,29.9,20.7,13.6,10,10,10,30.38,30.27,8,2,14,0.00
2013-7-5,96.1,84.7,72.0,30.8,22.2,12.5,10,10,10,30.34,30.21,8,2,16,0.00
2013-7-6,97.0,86.7,74.7,31.3,23.7,14.5,10,10,10,30.27,30.13,8,2,14,0.00
2013-7-7,97.5,87.4,75.6,31.9,24.2,15.2,10,10,10,30.19,30.03,8,2,15,0.00
2013-7-8,92.7,79.8,71.8,28.2,18.4,12.1,10,10,10,30.17,30.10,9,2,16,0.26
2013-7-9,92.1,81.1,69.8,27.8,19.4,10.8,10,10,10,30.19,30.10,6,1,11,0.00
2013-7-10,93.2,82.5,72.5,28.6,20.5,12.9,10,10,10,30.15,29.93,8,2,17,0.15
2013-7-11,88.2,80.0,75.7,24.8,18.6,15.4,10,10,10,30.02,29.93,4,1,9,0.09
2013-7-12,78.4,73.4,69.6,17.4,13.6,9.4,10,10,10,30.17,30.01,10,4,20,0.19
2013-7-13,87.3,78.8,71.4,24.0,17.7,12.1,10,10,10,30.40,27.37,7,1,57,0.00
2013-7-14,95.0,82.3,74.5,30.0,20.4,14.4,10,10,10,30.45,30.36,6,1,11,0.00
2013-7-15,96.6,86.1,74.5,31.2,23.2,14.4,10,10,10,30.38,30.22,7,2,12,0.00
2013-7-16,95.2,85.6,76.3,30.1,22.9,15.8,10,10,10,30.30,30.22,7,2,14,0.00
2013-7-17,93.6,85.2,73.8,28.9,22.5,13.8,10,10,10,30.30,30.19,5,1,9,0.00
2013-7-18,99.5,88.3,77.2,33.4,24.9,16.3,10,10,10,30.19,30.06,6,1,12,0.00
2013-7-19,100.4,90.2,80.2,34.1,26.4,18.8,10,10,10,30.09,29.91,9,3,18,0.00
2013-7-20,97.3,87.5,79.7,31.8,24.3,17.8,10,10,10,29.95,29.84,11,3,19,0.00
2013-7-21,86.5,78.8,73.6,23.6,17.7,13.7,10,10,10,30.06,29.94,7,1,13,0.02
2013-7-22,85.5,78.7,75.2,22.8,17.6,14.9,10,10,10,30.06,29.89,6,1,14,0.09
2013-7-23,89.4,81.2,72.9,25.8,19.5,13.2,10,10,10,29.90,29.67,8,1,14,0.39
2013-7-24,87.4,78.7,71.8,24.3,17.6,12.3,10,10,10,30.01,29.73,8,2,13,0.00
2013-7-25,72.0,67.0,64.9,12.5,8.7,7.1,10,10,10,30.14,30.01,8,3,16,0.00
2013-7-26,82.8,72.8,65.1,20.7,13.1,7.2,10,10,10,30.17,30.09,6,2,13,0.00
2013-7-27,84.4,77.9,63.5,21.9,17.0,6.0,10,10,10,30.18,30.15,4,1,10,0.00
2013-7-28,84.2,83.6,71.8,21.8,21.4,12.3,10,10,10,30.17,30.07,2,2,8,0.32
2013-7-29,90.0,77.0,68.0,26.2,16.3,9.4,10,10,10,30.23,30.06,8,1,13,0.06
2013-7-30,85.3,73.6,59.7,22.6,13.7,3.1,10,10,10,30.29,30.21,7,2,14,0.00
2013-7-31,83.1,73.3,60.3,20.8,13.5,3.5,10,10,10,30.28,30.16,4,1,10,0.00
2013-8-1,75.9,71.7,69.4,15.5,12.3,10.5,10,10,10,30.16,29.94,4,1,11,0.45
2013-8-2,89.1,77.4,68.5,25.5,16.6,9.6,10,10,10,30.04,29.91,8,2,17,0.00
2013-8-3,81.0,73.2,67.5,19.3,13.4,9.0,10,10,10,30.05,29.98,8,1,14,0.06
2013-8-4,81.1,72.7,61.7,19.5,13.0,4.6,10,10,10,30.09,29.96,9,2,17,0.00
2013-8-5,80.1,69.3,59.2,18.7,10.4,2.7,10,10,10,30.17,30.09,8,2,13,0.00
2013-8-6,80.8,71.7,58.5,19.1,12.3,2.1,10,10,10,30.24,30.16,5,1,11,0.00
2013-8-7,81.3,73.9,69.1,19.5,13.9,10.3,10,10,10,30.26,30.18,5,1,13,0.00
2013-8-8,87.6,76.7,71.4,24.4,16.1,12.1,10,10,10,30.19,30.11,6,1,13,0.67
2013-8-9,89.1,80.4,74.8,25.5,18.9,14.7,10,10,10,30.14,29.93,8,1,15,0.18
2013-8-10,85.5,78.4,72.0,22.8,17.4,12.5,10,10,10,30.16,29.97,6,1,11,0.00
2013-8-11,81.3,73.5,64.0,19.6,13.6,6.4,10,10,10,30.24,30.14,4,1,8,0.00
2013-8-12,83.7,74.5,68.2,21.3,14.4,9.4,10,10,10,30.15,30.03,4,0,10,0.07
2013-8-13,79.3,72.9,68.7,18.1,13.2,10.0,10,10,10,30.05,29.82,5,1,10,2.99
2013-8-14,75.6,69.0,60.8,15.2,10.2,3.9,10,10,10,30.17,29.85,11,4,21,0.00
2013-8-15,78.1,66.7,54.3,17.0,8.5,-1.1,10,10,10,30.27,30.16,7,1,11,0.00
2013-8-16,80.2,68.9,56.1,18.8,10.1,0.3,10,10,10,30.32,30.24,4,1,9,0.00
2013-8-17,79.9,69.0,56.7,18.4,10.2,0.7,10,10,10,30.39,27.34,5,0,9,0.00
2013-8-18,77.0,69.5,63.1,16.3,10.6,5.7,10,10,10,30.37,30.24,6,1,12,0.01
2013-8-19,81.7,70.8,60.4,18.5,11.6,3.6,10,10,10,30.27,30.16,6,1,11,0.00
2013-8-20,86.7,75.2,64.0,23.7,14.9,6.4,10,10,10,30.25,30.18,4,1,10,0.00
2013-8-21,90.3,78.7,67.6,26.4,17.6,9.2,10,10,10,30.30,30.18,6,1,11,0.00
2013-8-22,85.5,76.3,70.7,22.8,15.8,11.5,10,10,10,30.19,29.99,7,1,15,0.01
2013-8-23,83.8,74.3,66.0,21.4,14.3,7.9,10,10,10,30.19,29.99,6,1,11,0.00
2013-8-24,75.9,69.4,60.1,15.5,10.5,3.4,10,10,10,30.46,30.19,8,2,13,0.00
2013-8-25,82.8,68.8,55.2,20.6,10.1,-0.4,10,10,10,30.53,30.38,5,1,9,0.00
2013-8-26,87.1,74.4,63.3,24.0,14.3,5.9,10,10,10,30.39,30.04,8,2,17,0.00
2013-8-27,88.2,78.3,70.5,24.7,17.3,11.4,10,10,10,30.04,29.94,10,2,17,0.02
2013-8-28,84.6,75.2,68.0,22.1,14.9,9.4,10,10,10,30.01,29.95,3,0,7,0.02
2013-8-29,77.9,72.8,69.8,17.0,13.1,10.8,10,10,10,30.15,29.97,8,2,14,0.01
2013-8-30,86.7,76.3,69.4,23.7,15.7,10.5,10,10,10,30.14,29.99,7,2,14,0.00
2013-8-31,92.3,79.1,69.1,27.8,17.9,10.1,10,10,10,30.01,29.90,7,2,13,0.00
2013-9-1,90.0,78.7,73.0,26.2,17.6,13.3,10,10,10,29.97,29.92,6,1,11,0.00
2013-9-2,83.7,76.7,71.2,21.4,16.1,11.9,10,10,10,29.90,29.82,4,0,8,0.17
2013-9-3,84.0,73.5,65.8,21.6,13.6,7.7,10,10,10,30.00,29.83,6,1,12,0.01
2013-9-4,82.0,72.5,59.5,20.2,12.8,3.0,10,10,10,30.14,30.01,8,2,14,0.00
2013-9-5,80.1,69.7,58.6,18.7,10.8,2.1,10,10,10,30.25,30.07,8,2,13,0.00
2013-9-6,69.8,61.6,52.9,10.8,4.6,-2.2,10,10,10,30.37,30.25,7,2,14,0.00
2013-9-7,79.9,64.0,48.4,18.5,6.4,-5.8,10,10,10,30.26,30.03,7,1,11,0.00
2013-9-8,83.8,72.9,64.0,21.4,13.1,6.4,10,10,10,30.18,29.93,8,2,15,0.00
2013-9-9,74.1,66.2,53.2,14.1,8.0,-1.9,10,10,10,30.35,30.18,7,1,12,0.00
2013-9-10,90.1,78.2,68.5,26.3,17.2,9.7,10,10,10,30.30,30.16,8,2,14,0.00
2013-9-11,94.3,82.3,73.0,29.4,20.4,13.2,10,10,10,30.24,30.09,5,1,13,0.00
2013-9-12,92.7,78.6,71.8,28.1,17.6,12.3,10,10,10,30.12,29.81,8,1,18,0.19
2013-9-13,78.1,70.5,60.8,17.1,11.3,3.6,10,10,10,29.97,29.75,10,2,17,0.05
2013-9-14,70.5,59.7,51.4,11.4,3.1,-3.3,10,10,10,30.25,29.97,8,3,14,0.00
2013-9-15,75.6,60.2,44.8,15.2,3.5,-8.4,10,10,10,30.34,30.21,7,1,10,0.00
2013-9-16,70.7,63.5,59.5,11.4,6.0,2.8,10,10,10,30.32,30.16,6,1,11,0.05
2013-9-17,59.7,54.5,50.4,3.1,-0.9,-4.1,10,10,10,30.53,30.32,9,4,17,0.00
2013-9-30,70.5,59.7,50.2,11.2,2.9,-4.4,10,10,10,30.19,30.10,4,1,8,0.00
2013-10-1,81.0,66.7,54.7,19.2,8.3,-0.9,10,10,10,30.13,30.02,5,1,8,0.00
2013-10-2,84.2,70.2,56.5,21.7,11.0,0.4,10,10,10,30.13,30.03,5,1,11,0.00
2013-10-3,78.6,68.6,57.9,17.4,9.8,1.6,10,10,10,30.24,30.14,4,0,7,0.00
2013-10-4,86.4,71.8,59.4,23.3,12.2,2.7,10,10,10,30.19,30.08,3,1,7,0.00
2013-10-5,73.8,68.3,65.3,13.7,9.6,7.2,10,10,10,30.20,30.12,4,1,8,0.00
2013-10-6,73.4,70.5,65.7,13.6,11.4,7.5,10,10,10,30.20,30.12,4,1,10,0.00
2013-10-7,80.2,70.6,62.8,18.8,11.4,5.4,10,10,10,30.14,29.91,14,2,24,0.34
2013-10-8,67.6,59.6,52.3,9.2,3.0,-2.6,10,10,10,30.42,30.12,7,2,13,0.00
2013-10-9,62.4,60.5,54.7,5.2,3.7,-0.8,10,10,10,30.47,30.35,11,5,25,0.00
2013-10-10,65.7,60.4,56.7,6.1,3.6,0.7,10,10,10,30.37,30.14,12,5,22,0.54
2013-10-11,65.1,63.0,61.3,7.2,5.6,4.3,10,10,10,30.17,30.07,12,6,24,0.78
2013-10-12,68.4,63.4,61.2,9.7,5.9,4.1,10,10,10,30.35,30.14,13,6,26,0.20
2013-10-13,63.7,60.6,58.1,6.1,3.8,1.9,10,10,10,30.48,30.34,12,5,21,0.00
2013-10-14,63.7,57.1,48.7,6.0,1.1,-5.4,10,10,10,30.46,30.37,5,1,10,0.00
2013-10-15,66.9,55.7,45.3,8.6,-0.0,-8.0,10,10,10,30.38,30.21,7,1,11,0.00
2013-10-16,67.1,61.7,55.6,8.8,4.6,-0.1,10,10,10,30.22,30.04,4,1,8,0.00
2013-10-17,75.2,65.9,61.2,14.9,7.8,4.2,10,10,10,30.05,29.82,4,1,8,0.00
2013-10-18,69.1,61.5,51.1,10.3,4.4,-3.6,10,10,10,30.11,29.81,11,4,22,0.04
2013-10-19,66.4,55.8,43.0,8.2,0.1,-9.8,10,10,10,30.12,29.88,8,0,14,0.04
2013-10-20,63.1,54.9,45.5,5.7,-0.6,-8.1,10,10,10,30.21,29.88,8,2,17,0.01
2013-10-21,68.4,52.4,38.8,9.7,-2.6,-13.2,10,10,10,30.28,30.11,5,1,14,0.00
2013-10-22,70.9,55.6,43.9,11.6,-0.1,-9.1,10,10,10,30.11,29.88,9,1,16,0.00
2013-10-23,53.1,48.4,42.6,-2.2,-5.6,-10.1,10,10,10,29.94,29.71,7,1,14,0.12
2013-10-24,54.3,44.8,37.6,-1.1,-8.4,-14.0,10,10,10,30.16,29.88,11,2,18,0.00
2013-10-25,55.4,44.3,36.9,-0.2,-8.8,-14.6,10,10,10,30.37,30.15,11,3,21,0.00
2013-10-26,57.7,44.8,31.3,1.6,-8.4,-18.9,10,10,10,30.36,30.03,13,2,21,0.01
2013-10-27,59.4,49.6,41.0,2.8,-4.7,-11.5,10,10,10,30.26,29.99,11,2,19,0.00
2013-10-28,63.9,47.5,33.3,6.3,-6.4,-17.3,10,10,10,30.42,30.25,8,1,18,0.00
2013-10-29,55.9,48.3,41.5,0.1,-5.7,-10.9,10,10,10,30.51,30.42,8,1,14,0.00
2013-10-30,59.4,49.5,39.7,2.8,-4.7,-12.3,10,10,10,30.48,30.30,3,0,5,0.01
2013-10-31,69.4,61.2,52.5,10.5,4.2,-2.4,10,10,10,30.35,29.94,4,1,14,0.01
2013-11-1,70.9,64.9,59.4,11.6,7.0,2.8,10,10,10,29.94,29.70,12,3,21,0.11
2013-11-2,66.9,58.7,52.5,8.6,2.3,-2.4,10,10,10,29.90,29.73,4,1,8,0.01
2013-11-3,54.3,46.7,35.8,-1.1,-6.9,-15.4,10,10,10,30.56,29.90,8,3,16,0.00
2013-11-4,45.7,38.8,32.7,-7.7,-13.0,-17.8,10,10,10,30.76,30.56,8,2,14,0.00
2013-11-5,56.8,47.1,37.8,0.9,-6.6,-14.0,10,10,10,30.75,30.60,7,1,10,0.00
2013-11-6,62.2,51.4,36.1,5.0,-3.3,-15.3,10,10,10,30.61,30.20,4,1,11,0.00
2013-11-7,65.3,57.2,38.8,7.4,1.2,-13.0,10,10,10,30.19,29.88,11,2,20,0.06
2013-11-8,50.4,43.9,37.9,-4.1,-9.1,-13.7,10,10,10,30.36,30.07,12,3,22,0.01
2013-11-9,53.1,43.7,32.0,-2.2,-9.2,-18.5,10,10,10,30.43,30.12,7,1,13,0.00
2013-11-10,63.9,52.2,43.5,6.3,-2.7,-9.4,10,10,10,30.13,29.95,14,4,27,0.18
2013-11-11,54.9,54.9,54.9,-0.6,-0.6,-0.6,10,10,10,30.06,30.06,4,4,14,0.18
2013-11-12,54.9,41.2,29.7,-0.6,-11.2,-20.1,10,10,10,30.42,30.06,11,5,22,0.18
2013-11-13,40.1,31.7,24.8,-12.0,-18.6,-23.9,10,10,10,30.50,30.40,11,3,21,0.00
2013-11-14,55.4,41.0,28.2,-0.4,-11.3,-21.4,10,10,10,30.42,30.30,11,3,20,0.00
2013-11-15,59.5,43.4,32.0,3.0,-9.5,-18.5,10,10,10,30.38,30.28,4,0,9,0.00
2013-11-16,56.3,47.3,39.2,0.5,-6.4,-12.7,10,10,10,30.47,30.35,3,0,8,0.05
2013-11-17,65.1,56.7,48.0,7.2,0.8,-5.9,10,10,10,30.38,29.91,3,0,8,0.00
2013-11-18,68.0,60.4,51.3,9.4,3.6,-3.4,10,10,10,29.92,29.74,11,3,21,0.17
2013-11-19,51.4,44.3,35.4,-3.3,-8.8,-15.7,10,10,10,30.47,29.92,15,5,26,0.12
2013-11-20,44.4,35.9,28.2,-8.8,-15.3,-21.3,10,10,10,30.71,30.46,8,1,14,0.00
2013-11-21,53.4,44.5,33.3,-1.9,-8.6,-17.3,10,10,10,30.72,30.51,6,1,12,0.00
2013-11-22,59.5,53.0,46.6,3.0,-2.1,-7.0,10,10,10,30.51,30.03,8,2,14,0.02
2013-11-23,53.8,43.8,32.0,-1.5,-9.1,-18.3,10,10,10,30.16,30.03,15,5,28,0.01
2013-11-24,32.0,26.3,22.6,-18.3,-22.7,-25.8,10,10,10,30.53,30.13,18,7,32,1.28
2013-11-25,37.0,28.3,19.6,-14.4,-21.2,-28.0,10,10,10,30.63,30.47,8,2,14,0.00
2013-11-26,54.5,40.2,30.6,-1.1,-12.0,-19.4,10,10,10,30.48,29.83,8,1,17,0.48
2013-11-27,62.8,48.0,34.3,5.3,-6.0,-16.6,10,10,10,29.89,29.43,14,5,27,1.05
2013-11-28,37.0,32.0,27.9,-14.4,-18.4,-21.7,10,10,10,30.60,29.90,14,4,26,0.02
2013-11-29,40.5,32.9,27.1,-11.9,-17.6,-22.1,10,10,10,30.84,30.59,8,1,15,0.00
2013-11-30,39.7,34.0,25.7,-12.3,-16.8,-23.2,10,10,10,30.84,30.47,6,2,12,0.00
2013-12-1,51.6,41.8,33.1,-3.1,-10.7,-17.5,10,10,10,30.47,30.13,5,1,10,0.00
2013-12-2,53.1,41.1,32.9,-2.2,-11.2,-17.6,10,10,10,30.13,29.99,3,0,5,0.00
2013-12-3,54.9,43.7,32.7,-0.6,-9.2,-17.8,10,10,10,30.12,29.97,6,1,11,0.00
2013-12-4,53.8,44.2,34.0,-1.5,-8.8,-16.8,10,10,10,30.24,30.12,4,0,8,0.00
2013-12-5,63.3,54.6,47.8,5.9,-0.9,-6.1,10,10,10,30.23,30.06,5,0,9,0.00
2013-12-6,62.8,50.2,38.1,5.4,-4.2,-13.6,10,10,10,30.24,29.99,10,2,18,0.30
2013-12-7,46.2,36.6,30.9,-10.9,-14.8,-19.2,10,10,10,30.63,30.19,10,3,18,0.08
2013-12-8,39.0,30.8,26.6,-13.0,-19.3,-22.7,10,10,10,30.70,30.43,7,1,11,0.17
2013-12-9,45.3,40.1,34.0,-8.0,-12.0,-16.8,10,10,10,30.44,30.07,8,3,16,0.48
2013-12-10,35.6,32.5,25.5,-15.5,-18.0,-23.5,10,10,10,30.28,29.97,6,2,11,0.02
2013-12-11,34.2,27.8,22.1,-16.6,-21.6,-26.0,10,10,10,30.48,30.28,8,2,18,0.02
2013-12-12,28.2,23.6,19.2,-21.4,-24.9,-28.4,10,10,10,30.48,30.31,11,2,23,0.00
2013-12-13,37.4,27.5,16.5,-14.3,-21.8,-30.4,10,10,10,30.45,30.27,10,2,17,0.05
2013-12-14,50.9,36.4,27.0,-3.8,-14.9,-22.3,10,10,10,30.56,29.78,12,4,22,1.37
2013-12-15,54.3,39.8,33.4,-1.1,-12.3,-17.2,10,10,10,29.99,29.59,13,4,26,0.41
2013-12-16,34.5,27.9,20.1,-16.5,-21.5,-27.6,10,10,10,30.36,29.98,13,3,21,0.00
2013-12-17,44.6,31.9,23.5,-8.6,-18.4,-24.9,10,10,10,30.34,30.01,5,1,11,0.12
2013-12-18,38.7,30.5,24.1,-13.2,-19.5,-24.5,10,10,10,30.31,30.02,12,2,20,0.01
2013-12-19,49.6,37.7,23.7,-4.7,-13.9,-24.8,10,10,10,30.33,30.16,7,1,13,0.00
2013-12-20,56.7,48.1,36.7,0.7,-5.9,-14.7,10,10,10,30.22,30.10,8,1,14,0.00
2013-12-21,69.4,57.6,50.7,10.5,1.4,-3.8,10,10,10,30.14,30.01,10,2,18,0.00
2013-12-22,73.4,64.9,61.2,13.6,7.1,4.2,10,10,10,30.09,29.94,11,3,22,0.05
2013-12-23,65.5,55.0,42.4,7.5,-0.6,-10.2,10,10,10,30.27,30.06,11,3,18,0.39
2013-12-24,42.4,36.5,28.0,-10.2,-14.9,-21.6,10,10,10,30.47,30.20,14,4,24,0.00
2013-12-25,32.5,26.2,19.6,-17.9,-22.9,-28.0,10,10,10,30.65,30.47,11,2,20,0.00
2013-12-26,41.4,31.3,24.6,-11.2,-18.9,-24.1,10,10,10,30.54,30.28,8,1,15,0.00
2013-12-27,45.5,32.3,23.0,-7.9,-18.1,-25.3,10,10,10,30.50,30.38,8,1,17,0.00
2013-12-28,58.1,41.0,25.0,1.9,-11.4,-23.8,10,10,10,30.42,30.20,11,2,24,0.00
2013-12-29,59.4,45.1,41.5,2.8,-8.1,-10.9,10,10,10,30.21,29.50,14,2,26,0.94
2013-12-30,47.5,38.1,25.2,-6.3,-13.6,-23.7,10,10,10,30.30,29.82,10,3,17,0.00
2013-12-31,38.8,29.4,22.6,-13.0,-20.4,-25.6,10,10,10,30.42,30.18,13,3,21,0.00
2014-1-1,41.4,31.6,22.5,-11.2,-18.7,-25.8,10,10,10,30.53,30.33,8,1,14,0.00
2014-1-2,39.9,32.5,23.7,-12.2,-17.9,-24.8,10,10,10,30.32,29.71,12,6,21,0.00